| time (UTC) | temp C | wind direction | speed KPH | gust KPH | rain 1hr cm | rain 24hr cm | rain mn cm | humidity % | barometer mb |
| 20260906103033 | -17 | 122 | 0.0 | 0.0 | 0.00 | 0.00 | 0.00 | 1017.4 | |
| 20260906101531 | 19 | 122 | 0.0 | 1.6 | 0.00 | 0.00 | 0.00 | 97 | 1017.4 |
| 20260906100029 | 19 | 122 | 0.0 | 0.0 | 0.00 | 0.00 | 0.00 | 97 | 1017.3 |
| 20260906094537 | 20 | 122 | 0.0 | 0.0 | 0.00 | 0.00 | 0.00 | 97 | 1017.0 |
| 20260906093026 | 20 | 122 | 0.0 | 0.0 | 0.00 | 0.00 | 0.00 | 97 | 1016.7 |
| 20260906091525 | 20 | 122 | 0.0 | 1.6 | 0.00 | 0.00 | 0.00 | 97 | 1016.4 |
| 20260906090026 | 20 | 122 | 0.0 | 1.6 | 0.00 | 0.00 | 0.00 | 96 | 1016.4 |
| 20260906084528 | 20 | 126 | 0.0 | 1.6 | 0.00 | 0.00 | 0.00 | 96 | 1016.5 |
| 20260906083021 | 20 | 139 | 0.0 | 1.6 | 0.00 | 0.00 | 0.00 | 96 | 1016.5 |
| 20260906081539 | 20 | 152 | 0.0 | 1.6 | 0.00 | 0.00 | 0.00 | 96 | 1016.4 |
| 20260906080017 | 21 | 210 | 0.0 | 1.6 | 0.00 | 0.00 | 0.00 | 95 | 1016.5 |
| 20260906074516 | 21 | 186 | 0.0 | 3.2 | 0.00 | 0.00 | 0.00 | 95 | 1016.7 |
| 20260906073017 | 21 | 60 | 0.0 | 4.8 | 0.00 | 0.00 | 0.00 | 95 | 1016.5 |
| 20260906071513 | 21 | 131 | 0.0 | 3.2 | 0.00 | 0.00 | 0.00 | 95 | 1016.5 |
| 20260906070013 | 21 | 295 | 0.0 | 1.6 | 0.00 | 0.00 | 0.00 | 95 | 1016.9 |
| 20260906064512 | 21 | 46 | 0.0 | 3.2 | 0.00 | 0.00 | 0.00 | 95 | 1017.2 |
| 20260906063012 | 21 | 124 | 0.0 | 1.6 | 0.00 | 0.00 | 0.00 | 95 | 1017.2 |
| 20260906061512 | 21 | 43 | 0.0 | 3.2 | 0.00 | 0.00 | 0.00 | 94 | 1017.0 |
| 20260906060008 | 21 | 62 | 0.0 | 1.6 | 0.00 | 0.00 | 0.00 | 94 | 1017.1 |
| 20260906054507 | 21 | 43 | 0.0 | 3.2 | 0.00 | 0.00 | 0.00 | 94 | 1017.0 |
| 20260906053005 | 21 | 30 | 0.0 | 1.6 | 0.00 | 0.00 | 0.00 | 95 | 1016.9 |
| 20260906051504 | 21 | 32 | 0.0 | 3.2 | 0.00 | 0.00 | 0.00 | 95 | 1016.7 |
| 20260906050002 | 21 | 116 | 0.0 | 1.6 | 0.00 | 0.00 | 0.00 | 94 | 1016.7 |
| 20260906044501 | 21 | 117 | 0.0 | 1.6 | 0.00 | 0.00 | 0.00 | 94 | 1016.6 |
| 20260906043100 | 21 | 118 | 0.0 | 1.6 | 0.00 | 0.00 | 0.00 | 94 | 1016.8 |
| 20260906041600 | 22 | 118 | 0.0 | 0.0 | 0.00 | 0.00 | 0.00 | 94 | 1016.7 |
| 20260906040135 | 22 | 118 | 0.0 | 0.0 | 0.00 | 0.00 | 0.00 | 93 | 1016.6 |
| 20260906034605 | 22 | 118 | 0.0 | 1.6 | 0.00 | 0.00 | 0.00 | 93 | 1016.8 |
| 20260906033058 | 22 | 118 | 0.0 | 1.6 | 0.00 | 0.00 | 0.00 | 93 | 1016.6 |
| 20260906031602 | 22 | 117 | 0.0 | 0.0 | 0.00 | 0.00 | 0.00 | 93 | 1016.5 |
| 20260906030055 | 22 | 117 | 0.0 | 0.0 | 0.00 | 0.00 | 0.00 | 93 | 1016.3 |
| 20260906024553 | 22 | 117 | 0.0 | 1.6 | 0.00 | 0.00 | 0.00 | 92 | 1016.1 |
| 20260906023052 | 22 | 129 | 0.0 | 1.6 | 0.00 | 0.00 | 0.00 | 92 | 1016.1 |
| 20260906021602 | 23 | 229 | 0.0 | 0.0 | 0.00 | 0.00 | 0.00 | 92 | 1016.0 |
| 20260906020057 | 23 | 79 | 0.0 | 3.2 | 0.00 | 0.00 | 0.00 | 92 | 1015.5 |
| 20260906014557 | 23 | 113 | 0.0 | 6.4 | 0.00 | 0.00 | 0.00 | 92 | 1015.3 |
| 20260906013049 | 23 | 205 | 0.0 | 3.2 | 0.00 | 0.00 | 0.00 | 93 | 1014.9 |
| 20260906011550 | 23 | 218 | 0.0 | 0.0 | 0.00 | 0.00 | 0.00 | 92 | 1014.9 |
| 20260906010051 | 23 | 218 | 0.0 | 0.0 | 0.00 | 0.00 | 0.00 | 92 | 1014.7 |
| 20260906004553 | 23 | 218 | 0.0 | 0.0 | 0.00 | 0.00 | 0.00 | 91 | 1014.7 |
| 20260906003048 | 24 | 218 | 0.0 | 0.0 | 0.00 | 0.00 | 0.00 | 89 | 1014.5 |
| 20260906001553 | 25 | 218 | 0.0 | 0.0 | 0.00 | 0.00 | 0.00 | 88 | 1014.4 |
| 20260906000046 | 25 | 218 | 0.0 | 0.0 | 0.00 | 0.00 | 0.00 | 87 | 1014.4 |
| 20260905234545 | 25 | 113 | 0.0 | 1.6 | 0.00 | 0.00 | 0.00 | 85 | 1014.2 |
| 20260905233045 | 26 | 25 | 0.0 | 6.4 | 0.00 | 0.00 | 0.00 | 83 | 1014.4 |
| 20260905231545 | 27 | 109 | 0.0 | 6.4 | 0.00 | 0.00 | 0.00 | 81 | 1014.4 |
| 20260905230051 | 27 | 70 | 1.6 | 8.0 | 0.00 | 0.00 | 0.00 | 81 | 1014.0 |
| 20260905224551 | 27 | 22 | 1.6 | 14.5 | 0.00 | 0.00 | 0.00 | 81 | 1014.0 |
| 20260905223045 | 27 | 124 | 3.2 | 11.3 | 0.00 | 0.00 | 0.00 | 80 | 1013.8 |
| 20260905221547 | 28 | 122 | 3.2 | 14.5 | 0.00 | 0.00 | 0.00 | 79 | 1013.9 |
| 20260905220042 | 27 | 133 | 1.6 | 14.5 | 0.00 | 0.00 | 0.00 | 81 | 1013.9 |
| 20260905214540 | 27 | 335 | 4.8 | 12.9 | 0.00 | 0.00 | 0.00 | 81 | 1014.0 |
| 20260905213040 | 27 | 112 | 4.8 | 11.3 | 0.00 | 0.00 | 0.00 | 81 | 1014.0 |
| 20260905211545 | 27 | 165 | 4.8 | 16.1 | 0.00 | 0.00 | 0.00 | 83 | 1014.1 |
| 20260905210056 | 27 | 118 | 3.2 | 11.3 | 0.00 | 0.00 | 0.00 | 83 | 1014.3 |
| 20260905204539 | 28 | 105 | 1.6 | 11.3 | 0.00 | 0.00 | 0.00 | 83 | 1014.5 |
| 20260905203041 | 27 | 13 | 3.2 | 14.5 | 0.00 | 0.00 | 0.00 | 84 | 1014.7 |
| 20260905201540 | 28 | 80 | 3.2 | 12.9 | 0.00 | 0.00 | 0.00 | 82 | 1014.7 |
| 20260905200052 | 28 | 342 | 3.2 | 11.3 | 0.00 | 0.00 | 0.00 | 81 | 1014.9 |
| 20260905194537 | 28 | 353 | 4.8 | 12.9 | 0.00 | 0.00 | 0.00 | 82 | 1014.9 |
| 20260905193035 | 28 | 349 | 3.2 | 12.9 | 0.00 | 0.00 | 0.00 | 83 | 1015.0 |
| 20260905191540 | 28 | 133 | 3.2 | 9.7 | 0.00 | 0.00 | 0.00 | 81 | 1015.1 |
| 20260905190034 | 28 | 290 | 1.6 | 11.3 | 0.00 | 0.00 | 0.00 | 83 | 1015.5 |
| 20260905184536 | 28 | 30 | 1.6 | 12.9 | 0.00 | 0.00 | 0.00 | 82 | 1015.6 |
| 20260905183032 | 28 | 53 | 4.8 | 14.5 | 0.00 | 0.00 | 0.00 | 82 | 1015.7 |
| 20260905181531 | 28 | 15 | 4.8 | 14.5 | 0.00 | 0.00 | 0.00 | 83 | 1015.6 |
| 20260905180034 | 28 | 33 | 3.2 | 12.9 | 0.00 | 0.00 | 0.00 | 83 | 1015.4 |
| 20260905174532 | 27 | 27 | 6.4 | 17.7 | 0.00 | 0.00 | 0.00 | 85 | 1015.3 |
| 20260905173027 | 28 | 335 | 3.2 | 11.3 | 0.00 | 0.00 | 0.00 | 83 | 1015.3 |
| 20260905171540 | 29 | 23 | 1.6 | 16.1 | 0.00 | 0.00 | 0.00 | 83 | 1015.1 |
| 20260905170031 | 29 | 350 | 3.2 | 14.5 | 0.00 | 0.00 | 0.00 | 83 | 1015.1 |
| 20260905164525 | 30 | 27 | 3.2 | 11.3 | 0.00 | 0.00 | 0.00 | 81 | 1015.2 |
| 20260905163026 | 30 | 117 | 1.6 | 9.7 | 0.00 | 0.00 | 0.00 | 81 | 1015.2 |
| 20260905161533 | 29 | 30 | 1.6 | 8.0 | 0.00 | 0.00 | 0.00 | 82 | 1015.2 |
| 20260905160028 | 28 | 105 | 1.6 | 14.5 | 0.00 | 0.00 | 0.00 | 83 | 1015.2 |
| 20260905154528 | 28 | 25 | 1.6 | 9.7 | 0.00 | 0.00 | 0.00 | 84 | 1015.1 |
| 20260905153016 | 28 | 174 | 1.6 | 8.0 | 0.00 | 0.00 | 0.00 | 85 | 1015.0 |
| 20260905151515 | 28 | 20 | 4.8 | 12.9 | 0.00 | 0.00 | 0.00 | 84 | 1015.0 |
| 20260905150010 | 28 | 98 | 1.6 | 8.0 | 0.00 | 0.00 | 0.00 | 85 | 1015.0 |
| 20260905144505 | 27 | 77 | 0.0 | 8.0 | 0.00 | 0.00 | 0.00 | 84 | 1014.6 |
| 20260905143004 | 27 | 68 | 1.6 | 8.0 | 0.00 | 0.00 | 0.00 | 84 | 1014.4 |
| 20260905141600 | 26 | 123 | 0.0 | 3.2 | 0.00 | 0.00 | 0.00 | 86 | 1014.6 |
| 20260905140057 | 26 | 113 | 0.0 | 3.2 | 0.00 | 0.00 | 0.00 | 87 | 1014.5 |
| 20260905134555 | 25 | 27 | 0.0 | 4.8 | 0.00 | 0.00 | 0.00 | 89 | 1014.4 |
| 20260905133047 | 24 | 115 | 0.0 | 3.2 | 0.00 | 0.00 | 0.00 | 91 | 1014.0 |
| 20260905131544 | 23 | 102 | 0.0 | 0.0 | 0.00 | 0.00 | 0.00 | 92 | 1014.1 |
| 20260905130040 | 23 | 102 | 0.0 | 0.0 | 0.00 | 0.00 | 0.00 | 93 | 1013.8 |
| 20260905124546 | 22 | 102 | 0.0 | 3.2 | 0.00 | 0.00 | 0.00 | 94 | 1013.8 |
| 20260905123037 | -17 | 0.0 | 0.0 | 0.00 | 0.00 | 0.00 | 1013.6 | ||
| 20260905121532 | -17 | 0.0 | 0.0 | 0.00 | 0.00 | 0.00 | 1013.7 | ||
| 20260905120031 | -17 | 0.0 | 0.0 | 0.00 | 0.00 | 0.00 | 1013.7 | ||
| 20260905114524 | -17 | 0.0 | 0.0 | 0.00 | 0.00 | 0.00 | 1013.4 | ||
| 20260905113019 | -17 | 0.0 | 0.0 | 0.00 | 0.00 | 0.00 | 1013.1 | ||
| 20260905111515 | -17 | 0.0 | 0.0 | 0.00 | 0.00 | 0.00 | 1013.3 | ||
| 20260905110011 | -17 | 113 | 0.0 | 0.0 | 0.00 | 0.00 | 0.00 | 1013.5 | |
| 20260905104512 | 20 | 111 | 0.0 | 0.0 | 0.00 | 0.00 | 0.00 | 98 | 1013.1 |